User: anonymous   Login
Location: Newark
(25.6108°S, 54.5803°W)
Time: 14:26:35
(UTC+00:00)
Language:

Courier 1B Rocket - Orbit

View from above orbital plane
View from above orbital plane
View from above satellite
View from above satellite

Ground track
Ground track

The orbit data is extracted from the following two-line orbital elements,

1 00059U 60013B   21135.86536224  .00000132  00000-0  54781-4 0  9997
2 00059  28.2501 310.6711 0189186 196.2479 163.1934 13.52985065992162
Epoch (UTC): 15 May 2021 20:46:07
Eccentricity: 0.0189186
inclination: 28.2501°
perigee height: 920 km
apogee height: 1202 km
right ascension of ascending node: 310.6711°
argument of perigee: 196.2479°
revolutions per day: 13.52985065
mean anomaly at epoch: 163.1934°
orbit number at epoch: 99216

The dashed part of the orbit path shows where the satellite is in the earth's shadow,  

DLR